Warning: Javascript must be enabled to use all the features on this page!


Page Loading - Please Wait...

Click to hideNews Bulletins

Peak Streamflow for the Nation

USGS 10132000 WEBER RIVER AT ECHO, UT

Summit County, Utah
Hydrologic Unit Code 16020101
Latitude  40°58'04", Longitude 111°26'13" NAD27
Drainage area 727  square miles
Gage datum 5,442.15 feet above NAVD88
Output formats
Table
Graph
Tab-separated file
peakfq (watstore) format
Reselect output format
Water
Year
Date Gage
Height
(feet)
Stream-
flow
(cfs)
1927 1927-05-18 3.703 2,1406
1928 1928-05-29 3.623 2,0906
1929 1929-05-26   2,2106
1930 1930-06-12 2.543 1,0806
1931 1931-05-19   4176
1932 1932-05-22 5.203 1,8706
1933 1933-06-10 4.713 1,5306
1934 1934-04-22 2.663 3916
1935 1935-06-05 5.603 2,1006
1936 1936-06-01 5.003 1,7306
1937 1937-05-30 5.833 2,3306
1938 1938-05-29 5.603 2,0906
1939 1939-05-10 3.493 7056
1940 1940-05-24 3.153 5486
1941 1941-06-16 3.923 9226
1942 1942-05-27 5.153 1,5606
1943 1943-06-02 6.123 2,3706
1944 1944-06-02 6.173 2,2906
1945 1945-06-10 3.603 6806
1946 1946-04-27 4.303 1,0606
1947 1947-05-09 5.103 1,6006
1948 1948-05-21 5.913 2,1406
1949 1949-06-14 5.433 1,7406
1950 1950-05-26 6.966 2,5806
1951 1951-05-30 6.543 2,2206
1952 1952-05-13 7.343 3,0606
1953 1953-06-15 6.013 1,8706
1954 1954-05-20 3.923 6136
1955 1955-07-09 4.073 6916
1956 1956-05-25 5.743 1,6206
1957 1957-07-21 4.523 6956
1958 1958-04-15 4.623 8226
1989 1989-07-08   7066
1990 1990-08-10 4.28 1,7206
1991 1991-06-13 4.35 1,4806
1992 1992-08-02 3.27 6376
1993 1993-05-28 4.56 1,6706
1994 1994-07-01 3.23 6446
1995 1995-06-17 4.82 2,1806
1996 1996-06-17 4.03 1,2806
1997 1997-06-13 4.38 1,6406
1998 1998-06-19 4.87 2,0206
1999 1999-06-03 4.18 1,5406
2000 2000-08-09   5896
2001 2001-07-31   4616
2002 2002-08-01   5446
2003 2003-08-08   4376
2004 2004-07-20 3.15 5926
2005 2005-05-27 4.48 1,7306
2006 2006-06-10 4.31 1,5406
2007 2007-07-08 3.24 6236
2008 2008-06-19 4.18 1,4006
2009 2009-06-22 4.61 1,8906
2010 2010-06-09   2,2306
2011 2011-06-27   2,0206
2012 2012-07-01   6886
2013 2013-07-04   5406
2014 2014-07-13 3.22 6116
2015 2015-07-12 3.20 5986
2016 2016-07-25 3.29 6886
2017 2017-06-08 4.46 1,7106
2018 2018-07-10 3.33 7156
2019 2019-06-15 4.14 1,3606
2020 2020-07-12 3.14 6056
2021 2021-07-15 2.85 4136
2022 2022-09-05 3.28 6966
?
  Peak Gage-Height Qualification Codes.
?
  Peak Streamflow Qualification Codes.